Find Starlink 31144

NORAD ID: 58682 Int'l Des: 2023-211 Owner: SPXS Country: US Constellation: starlink operational
LEOCIRCULAR

Live Position

Loading 3D Globe...

About Starlink 31144

Description loading...

Upcoming Passes

Passes for default location (London). Set your location on the main map for personalized predictions.

Altitude History

Loading altitude history...

Two-Line Element Set

1 58682U 23211R 26105.66019429 .00009334 00000-0 34812-3 0 9999
2 58682 43.0011 236.0635 0001293 253.2057 106.8653 15.27595129128123
Epoch: Apr 15, 2026 • Age: 25 hours

Current Status

Altitude 493.1 km
Velocity 7.62 km/s
Sub-Earth Point -37.03°S, 81.55°E
Launch Date Dec 29, 2023
Age 2.2 years
Type internet

Technical Details

Classification Payload
Mass 730.00 kg
Dry Mass 700.00 kg
Total Mass 730.00 kg
Length 0.30 m
Diameter 4.10 m
Span 29.00 m
Shape Box + pan
Manufacturer SPXS
Bus Type Starlink V2M
Phase Status In Orbit
Owner/State SPXS/US

Most Searched